This is the latest recevied weather packets stored in our database for station/object K4KJQ-13. If no packets are shown the sender has not sent any weather packets the latest 1 day(s).
| Time | Temp. | Humidity | Pressure | Rain* | Wind** | Luminosity | Snow |
|---|---|---|---|---|---|---|---|
| 1778041270 | 14.44° C | 100% | 0 hPa | 1.52 mm | 3.13 m/s, 288° | - | - |
| 1778040970 | 15° C | 100% | 0 hPa | 1.52 mm | 2.68 m/s, 288° | - | - |
| 1778040670 | 15° C | 100% | 0 hPa | 1.78 mm | 2.24 m/s, 289° | - | - |
| 1778040370 | 14.44° C | 100% | 0 hPa | 1.78 mm | 1.34 m/s, 305° | - | - |
| 1778040070 | 14.44° C | 100% | 0 hPa | 1.78 mm | 3.58 m/s, 293° | - | - |
| 1778039770 | 14.44° C | 100% | 0 hPa | 1.52 mm | 3.58 m/s, 285° | - | - |
| 1778039470 | 15.56° C | 100% | 0 hPa | 1.27 mm | 2.24 m/s, 306° | - | - |
| 1778039170 | 15.56° C | 100% | 0 hPa | 0.25 mm | 4.02 m/s, 302° | - | - |
| 1778038870 | 16.11° C | 100% | 0 hPa | 0.25 mm | 4.02 m/s, 293° | - | - |
| 1778038570 | 15.56° C | 100% | 0 hPa | 0.25 mm | 4.47 m/s, 265° | - | - |
| 1778038270 | 15.56° C | 100% | 0 hPa | 0.25 mm | 2.68 m/s, 282° | - | - |
| 1778037970 | 15.56° C | 100% | 0 hPa | 0.25 mm | 2.68 m/s, 296° | - | - |
| 1778037670 | 15.56° C | 100% | 0 hPa | 0.51 mm | 3.13 m/s, 296° | - | - |
| 1778037370 | 16.11° C | 100% | 0 hPa | 0.51 mm | 3.58 m/s, 302° | - | - |
| 1778037070 | 16.11° C | 100% | 0 hPa | 0.25 mm | 1.79 m/s, 295° | - | - |
| 1778036770 | 17.22° C | 100% | 0 hPa | 0.25 mm | 1.34 m/s, 300° | - | - |
| 1778036470 | 17.22° C | 100% | 0 hPa | 0.25 mm | 4.02 m/s, 322° | - | - |
| 1778036170 | 17.78° C | 100% | 0 hPa | 0.25 mm | 1.79 m/s, 298° | - | - |
| 1778035870 | 17.78° C | 100% | 0 hPa | 0.25 mm | 3.58 m/s, 312° | - | - |
| 1778035570 | 17.78° C | 100% | 0 hPa | 0.25 mm | 4.02 m/s, 296° | - | - |
| 1778035270 | 18.33° C | 100% | 0 hPa | 0.25 mm | 2.24 m/s, 309° | - | - |
| 1778034970 | 17.78° C | 100% | 0 hPa | 0.25 mm | 2.68 m/s, 299° | - | - |
| 1778034670 | 17.22° C | 100% | 0 hPa | 0.25 mm | 2.24 m/s, 295° | - | - |
| 1778034370 | 17.22° C | 100% | 0 hPa | 0.25 mm | 2.24 m/s, 299° | - | - |
| 1778034070 | 17.78° C | 100% | 0 hPa | 0 mm | 2.24 m/s, 298° | - | - |
* Rain latest hour (hover to see other rain measurements)
** Current wind speed in m/s (hover to see current wind gust speed)